| time (UTC) | temp F | wind direction | speed knots | gust knots | rain 1hr in | rain 24hr in | rain mn in | humidity % | barometer mb |
| 20260504150918 | 70 | 169 | 4.3 | 5.2 | 0.00 | 0.00 | 0.00 | 64 | 1014.7 |
| 20260504150414 | 70 | 203 | 6.1 | 7.8 | 0.00 | 0.00 | 0.00 | 65 | 1014.7 |
| 20260504140841 | 68 | 180 | 6.1 | 7.8 | 0.00 | 0.00 | 0.00 | 70 | 1015.3 |
| 20260504140337 | 67 | 189 | 4.3 | 5.2 | 0.00 | 0.00 | 0.00 | 70 | 1015.1 |
| 20260504130806 | 65 | 159 | 7.0 | 9.6 | 0.00 | 0.00 | 0.00 | 74 | 1015.3 |
| 20260504130302 | 64 | 181 | 3.5 | 5.2 | 0.00 | 0.00 | 0.00 | 74 | 1015.2 |
| 20260504120225 | 63 | 191 | 1.7 | 1.7 | 0.00 | 0.00 | 0.00 | 76 | 1015.0 |
| 20260504110653 | 63 | 180 | 0.9 | 1.7 | 0.00 | 0.00 | 0.00 | 71 | 1014.8 |
| 20260504110149 | 63 | 196 | 1.7 | 1.7 | 0.00 | 0.00 | 0.00 | 72 | 1014.5 |
| 20260504100609 | 63 | 182 | 1.7 | 1.7 | 0.00 | 0.00 | 0.00 | 73 | 1015.1 |
| 20260504100108 | 63 | 196 | 0.9 | 0.9 | 0.00 | 0.00 | 0.00 | 73 | 1015.0 |
| 20260504082003 | 64 | 184 | 1.7 | 2.6 | 0.00 | 0.00 | 0.00 | 67 | 1015.4 |
| 20260504081500 | 65 | 159 | 5.2 | 8.7 | 0.00 | 0.00 | 0.00 | 66 | 1015.6 |
| 20260504080955 | 65 | 152 | 5.2 | 7.0 | 0.00 | 0.00 | 0.00 | 64 | 1015.6 |
| 20260504080452 | 65 | 189 | 4.3 | 7.0 | 0.00 | 0.00 | 0.00 | 64 | 1015.5 |
| 20260504050305 | 69 | 163 | 2.6 | 2.6 | 0.00 | 0.00 | 0.00 | 56 | 1017.4 |
| 20260504045757 | 69 | 184 | 2.6 | 2.6 | 0.00 | 0.00 | 0.00 | 56 | 1017.2 |
| 20260504045256 | 69 | 166 | 3.5 | 4.3 | 0.00 | 0.00 | 0.00 | 56 | 1017.4 |
| 20260504044754 | 69 | 204 | 1.7 | 1.7 | 0.00 | 0.00 | 0.00 | 56 | 1017.6 |
| 20260504044252 | 69 | 178 | 1.7 | 2.6 | 0.00 | 0.00 | 0.00 | 55 | 1017.6 |
| 20260504043748 | 69 | 184 | 2.6 | 2.6 | 0.00 | 0.00 | 0.00 | 55 | 1017.4 |
| 20260504043245 | 69 | 183 | 2.6 | 2.6 | 0.00 | 0.00 | 0.00 | 55 | 1017.4 |
| 20260504042743 | 69 | 175 | 4.3 | 6.1 | 0.00 | 0.00 | 0.00 | 55 | 1017.5 |
| 20260504042239 | 69 | 178 | 2.6 | 2.6 | 0.00 | 0.00 | 0.00 | 55 | 1017.6 |
| 20260504041736 | 70 | 181 | 2.6 | 2.6 | 0.00 | 0.00 | 0.00 | 54 | 1017.7 |
| 20260504041232 | 70 | 179 | 2.6 | 2.6 | 0.00 | 0.00 | 0.00 | 54 | 1017.6 |
| 20260504040728 | 70 | 137 | 3.5 | 4.3 | 0.00 | 0.00 | 0.00 | 54 | 1017.5 |
| 20260504040226 | 70 | 168 | 3.5 | 4.3 | 0.00 | 0.00 | 0.00 | 53 | 1017.6 |
| 20260504035722 | 70 | 198 | 5.2 | 7.0 | 0.00 | 0.00 | 0.00 | 53 | 1017.3 |
| 20260504035219 | 70 | 173 | 1.7 | 1.7 | 0.00 | 0.00 | 0.00 | 53 | 1017.6 |
| 20260504034716 | 71 | 182 | 4.3 | 6.1 | 0.00 | 0.00 | 0.00 | 52 | 1017.7 |
| 20260504034214 | 71 | 170 | 5.2 | 7.8 | 0.00 | 0.00 | 0.00 | 52 | 1017.4 |
| 20260504033711 | 71 | 190 | 0.9 | 0.9 | 0.00 | 0.00 | 0.00 | 51 | 1017.4 |
| 20260504033208 | 71 | 172 | 6.1 | 7.0 | 0.00 | 0.00 | 0.00 | 50 | 1017.5 |
| 20260504032705 | 71 | 171 | 5.2 | 6.1 | 0.00 | 0.00 | 0.00 | 50 | 1017.4 |
| 20260504032202 | 71 | 191 | 0.9 | 0.9 | 0.00 | 0.00 | 0.00 | 51 | 1017.5 |
| 20260504031659 | 71 | 196 | 3.5 | 6.1 | 0.00 | 0.00 | 0.00 | 50 | 1017.2 |
| 20260504031155 | 71 | 194 | 2.6 | 6.1 | 0.00 | 0.00 | 0.00 | 50 | 1017.4 |
| 20260504030652 | 71 | 177 | 1.7 | 2.6 | 0.00 | 0.00 | 0.00 | 50 | 1017.3 |
| 20260504030149 | 71 | 194 | 2.6 | 2.6 | 0.00 | 0.00 | 0.00 | 50 | 1017.3 |
| 20260504025646 | 72 | 180 | 1.7 | 1.7 | 0.00 | 0.00 | 0.00 | 49 | 1017.2 |
| 20260504025142 | 72 | 182 | 2.6 | 2.6 | 0.00 | 0.00 | 0.00 | 49 | 1017.4 |
| 20260504024640 | 72 | 163 | 3.5 | 4.3 | 0.00 | 0.00 | 0.00 | 49 | 1017.3 |
| 20260504024136 | 72 | 179 | 2.6 | 2.6 | 0.00 | 0.00 | 0.00 | 48 | 1017.4 |
| 20260504023633 | 72 | 205 | 2.6 | 2.6 | 0.00 | 0.00 | 0.00 | 48 | 1017.4 |
| 20260504023129 | 72 | 179 | 1.7 | 1.7 | 0.00 | 0.00 | 0.00 | 48 | 1017.4 |
| 20260504022626 | 73 | 179 | 2.6 | 2.6 | 0.00 | 0.00 | 0.00 | 48 | 1017.6 |
| 20260504022121 | 73 | 167 | 2.6 | 5.2 | 0.00 | 0.00 | 0.00 | 47 | 1017.6 |
| 20260504021620 | 73 | 195 | 1.7 | 2.6 | 0.00 | 0.00 | 0.00 | 47 | 1017.4 |
| 20260504021116 | 73 | 185 | 1.7 | 1.7 | 0.00 | 0.00 | 0.00 | 47 | 1017.3 |
| 20260504020613 | 73 | 162 | 2.6 | 2.6 | 0.00 | 0.00 | 0.00 | 46 | 1017.2 |
| 20260504020109 | 73 | 194 | 3.5 | 5.2 | 0.00 | 0.00 | 0.00 | 45 | 1017.1 |
| 20260504015606 | 74 | 148 | 1.7 | 2.6 | 0.00 | 0.00 | 0.00 | 45 | 1017.2 |
| 20260504015102 | 74 | 189 | 1.7 | 2.6 | 0.00 | 0.00 | 0.00 | 45 | 1017.0 |
| 20260504014558 | 74 | 160 | 1.7 | 2.6 | 0.00 | 0.00 | 0.00 | 45 | 1017.3 |
| 20260504014055 | 74 | 194 | 4.3 | 6.1 | 0.00 | 0.00 | 0.00 | 45 | 1017.0 |
| 20260504013553 | 75 | 197 | 2.6 | 6.1 | 0.00 | 0.00 | 0.00 | 44 | 1017.2 |
| 20260504013050 | 75 | 176 | 3.5 | 5.2 | 0.00 | 0.00 | 0.00 | 44 | 1017.1 |
| 20260504012547 | 75 | 181 | 2.6 | 4.3 | 0.00 | 0.00 | 0.00 | 44 | 1017.0 |
| 20260504012045 | 75 | 177 | 4.3 | 5.2 | 0.00 | 0.00 | 0.00 | 43 | 1017.1 |
| 20260504011541 | 75 | 185 | 5.2 | 7.0 | 0.00 | 0.00 | 0.00 | 43 | 1017.1 |
| 20260504011037 | 75 | 205 | 2.6 | 5.2 | 0.00 | 0.00 | 0.00 | 42 | 1017.0 |
| 20260504010533 | 76 | 180 | 2.6 | 2.6 | 0.00 | 0.00 | 0.00 | 42 | 1017.0 |
| 20260504010030 | 76 | 201 | 5.2 | 6.1 | 0.00 | 0.00 | 0.00 | 41 | 1016.9 |
| 20260504005526 | 76 | 181 | 5.2 | 7.0 | 0.00 | 0.00 | 0.00 | 40 | 1016.9 |
| 20260504005024 | 76 | 176 | 3.5 | 4.3 | 0.00 | 0.00 | 0.00 | 40 | 1017.0 |
| 20260504004522 | 76 | 197 | 3.5 | 5.2 | 0.00 | 0.00 | 0.00 | 40 | 1017.0 |
| 20260504004019 | 77 | 179 | 1.7 | 2.6 | 0.00 | 0.00 | 0.00 | 40 | 1016.8 |
| 20260504003515 | 77 | 143 | 4.3 | 6.1 | 0.00 | 0.00 | 0.00 | 40 | 1016.9 |
| 20260504003012 | 78 | 174 | 2.6 | 4.3 | 0.00 | 0.00 | 0.00 | 39 | 1016.8 |
| 20260504002509 | 78 | 188 | 1.7 | 1.7 | 0.00 | 0.00 | 0.00 | 39 | 1017.0 |
| 20260504002006 | 78 | 167 | 1.7 | 1.7 | 0.00 | 0.00 | 0.00 | 39 | 1016.8 |
| 20260504001503 | 78 | 144 | 3.5 | 4.3 | 0.00 | 0.00 | 0.00 | 39 | 1017.0 |
| 20260504000959 | 78 | 174 | 2.6 | 4.3 | 0.00 | 0.00 | 0.00 | 39 | 1017.2 |
| 20260504000457 | 78 | 163 | 5.2 | 7.0 | 0.00 | 0.00 | 0.00 | 39 | 1017.0 |
| 20260503235954 | 79 | 211 | 3.5 | 5.2 | 0.00 | 0.00 | 0.00 | 38 | 1017.0 |
| 20260503235452 | 79 | 192 | 3.5 | 4.3 | 0.00 | 0.00 | 0.00 | 37 | 1016.9 |
| 20260503234949 | 79 | 156 | 6.1 | 7.8 | 0.00 | 0.00 | 0.00 | 37 | 1017.0 |
| 20260503234446 | 80 | 184 | 5.2 | 6.1 | 0.00 | 0.00 | 0.00 | 37 | 1017.1 |
| 20260503233944 | 80 | 190 | 1.7 | 2.6 | 0.00 | 0.00 | 0.00 | 37 | 1017.0 |
| 20260503233440 | 79 | 201 | 1.7 | 2.6 | 0.00 | 0.00 | 0.00 | 37 | 1017.1 |
| 20260503232937 | 80 | 189 | 7.0 | 8.7 | 0.00 | 0.00 | 0.00 | 37 | 1017.5 |
| 20260503232434 | 80 | 190 | 0.0 | 0.9 | 0.00 | 0.00 | 0.00 | 38 | 1017.2 |
| 20260503231932 | 80 | 210 | 3.5 | 5.2 | 0.00 | 0.00 | 0.00 | 37 | 1017.3 |
| 20260503231429 | 80 | 193 | 0.9 | 1.7 | 0.00 | 0.00 | 0.00 | 37 | 1017.4 |
| 20260503230925 | 80 | 196 | 7.0 | 11.3 | 0.00 | 0.00 | 0.00 | 35 | 1017.2 |
| 20260503230422 | 81 | 213 | 7.0 | 7.8 | 0.00 | 0.00 | 0.00 | 35 | 1017.2 |
| 20260503225920 | 81 | 195 | 4.3 | 6.1 | 0.00 | 0.00 | 0.00 | 36 | 1017.2 |
| 20260503225416 | 82 | 152 | 6.1 | 11.3 | 0.00 | 0.00 | 0.00 | 36 | 1017.2 |
| 20260503224912 | 82 | 155 | 3.5 | 6.1 | 0.00 | 0.00 | 0.00 | 35 | 1017.5 |
| 20260503224409 | 82 | 180 | 2.6 | 4.3 | 0.00 | 0.00 | 0.00 | 35 | 1017.1 |
| 20260503223907 | 82 | 201 | 1.7 | 4.3 | 0.00 | 0.00 | 0.00 | 34 | 1017.3 |
| 20260503223405 | 82 | 190 | 3.5 | 5.2 | 0.00 | 0.00 | 0.00 | 33 | 1017.5 |
| 20260503222859 | 81 | 204 | 2.6 | 4.3 | 0.00 | 0.00 | 0.00 | 33 | 1017.6 |
| 20260503222358 | 82 | 176 | 5.2 | 8.7 | 0.00 | 0.00 | 0.00 | 33 | 1017.5 |
| 20260503221856 | 81 | 225 | 5.2 | 8.7 | 0.00 | 0.00 | 0.00 | 34 | 1017.6 |
| 20260503221355 | 82 | 207 | 1.7 | 2.6 | 0.00 | 0.00 | 0.00 | 34 | 1017.7 |
| 20260503220850 | 82 | 189 | 1.7 | 1.7 | 0.00 | 0.00 | 0.00 | 34 | 1017.7 |
| 20260503220347 | 83 | 200 | 1.7 | 2.6 | 0.00 | 0.00 | 0.00 | 34 | 1017.7 |
| 20260503215844 | 83 | 160 | 3.5 | 5.2 | 0.00 | 0.00 | 0.00 | 33 | 1017.8 |
| 20260503215341 | 83 | 183 | 7.0 | 7.8 | 0.00 | 0.00 | 0.00 | 33 | 1017.6 |
| 20260503214839 | 82 | 153 | 0.0 | 0.9 | 0.00 | 0.00 | 0.00 | 35 | 1017.8 |
| 20260503214336 | 83 | 187 | 5.2 | 7.8 | 0.00 | 0.00 | 0.00 | 34 | 1018.1 |
| 20260503213833 | 83 | 221 | 3.5 | 6.1 | 0.00 | 0.00 | 0.00 | 34 | 1018.1 |
| 20260503213331 | 82 | 123 | 2.6 | 2.6 | 0.00 | 0.00 | 0.00 | 33 | 1018.1 |
| 20260503212827 | 82 | 201 | 5.2 | 8.7 | 0.00 | 0.00 | 0.00 | 34 | 1018.1 |
| 20260503212326 | 84 | 197 | 2.6 | 2.6 | 0.00 | 0.00 | 0.00 | 33 | 1018.1 |
| 20260503211823 | 84 | 209 | 0.9 | 0.9 | 0.00 | 0.00 | 0.00 | 34 | 1018.5 |
| 20260503211319 | 84 | 222 | 1.7 | 1.7 | 0.00 | 0.00 | 0.00 | 35 | 1018.3 |
| 20260503210819 | 83 | 180 | 6.1 | 7.0 | 0.00 | 0.00 | 0.00 | 32 | 1018.3 |
| 20260503210317 | 83 | 146 | 5.2 | 6.1 | 0.00 | 0.00 | 0.00 | 32 | 1018.5 |
| 20260503205812 | 83 | 171 | 2.6 | 2.6 | 0.00 | 0.00 | 0.00 | 33 | 1018.6 |
| 20260503205309 | 83 | 145 | 0.9 | 1.7 | 0.00 | 0.00 | 0.00 | 33 | 1018.8 |
| 20260503204805 | 84 | 178 | 1.7 | 2.6 | 0.00 | 0.00 | 0.00 | 33 | 1018.9 |
| 20260503204303 | 84 | 174 | 2.6 | 2.6 | 0.00 | 0.00 | 0.00 | 31 | 1018.8 |
| 20260503203800 | 83 | 174 | 2.6 | 2.6 | 0.00 | 0.00 | 0.00 | 33 | 1018.9 |
| 20260503203257 | 84 | 166 | 1.7 | 4.3 | 0.00 | 0.00 | 0.00 | 32 | 1019.2 |
| 20260503202754 | 84 | 170 | 2.6 | 5.2 | 0.00 | 0.00 | 0.00 | 31 | 1019.2 |
| 20260503202252 | 84 | 222 | 1.7 | 1.7 | 0.00 | 0.00 | 0.00 | 33 | 1019.4 |
| 20260503201750 | 84 | 187 | 1.7 | 1.7 | 0.00 | 0.00 | 0.00 | 34 | 1019.3 |
| 20260503201247 | 84 | 144 | 2.6 | 4.3 | 0.00 | 0.00 | 0.00 | 33 | 1019.5 |
| 20260503200744 | 84 | 177 | 0.9 | 2.6 | 0.00 | 0.00 | 0.00 | 35 | 1019.6 |
| 20260503200240 | 83 | 218 | 0.9 | 1.7 | 0.00 | 0.00 | 0.00 | 34 | 1019.7 |
| 20260503195737 | 84 | 254 | 2.6 | 5.2 | 0.00 | 0.00 | 0.00 | 34 | 1019.8 |
| 20260503195233 | 83 | 115 | 2.6 | 4.3 | 0.00 | 0.00 | 0.00 | 34 | 1019.8 |
| 20260503194732 | 84 | 232 | 0.9 | 1.7 | 0.00 | 0.00 | 0.00 | 34 | 1020.1 |
| 20260503194227 | 83 | 204 | 0.9 | 1.7 | 0.00 | 0.00 | 0.00 | 33 | 1019.9 |
| 20260503193723 | 83 | 213 | 0.0 | 0.9 | 0.00 | 0.00 | 0.00 | 36 | 1020.1 |
| 20260503193219 | 83 | 153 | 2.6 | 5.2 | 0.00 | 0.00 | 0.00 | 34 | 1020.3 |
| 20260503192715 | 82 | 134 | 1.7 | 2.6 | 0.00 | 0.00 | 0.00 | 34 | 1020.2 |
| 20260503192210 | 83 | 186 | 1.7 | 1.7 | 0.00 | 0.00 | 0.00 | 35 | 1020.5 |
| 20260503191708 | 83 | 230 | 0.9 | 1.7 | 0.00 | 0.00 | 0.00 | 36 | 1020.5 |
| 20260503191205 | 83 | 204 | 1.7 | 2.6 | 0.00 | 0.00 | 0.00 | 37 | 1020.5 |
| 20260503190701 | 83 | 230 | 0.9 | 1.7 | 0.00 | 0.00 | 0.00 | 37 | 1020.5 |
| 20260503190158 | 82 | 206 | 2.6 | 5.2 | 0.00 | 0.00 | 0.00 | 38 | 1020.5 |
| 20260503185655 | 84 | 201 | 0.9 | 0.9 | 0.00 | 0.00 | 0.00 | 37 | 1020.6 |
| 20260503185150 | 83 | 243 | 1.7 | 1.7 | 0.00 | 0.00 | 0.00 | 37 | 1020.6 |
| 20260503184645 | 82 | 177 | 3.5 | 4.3 | 0.00 | 0.00 | 0.00 | 39 | 1020.7 |
| 20260503184142 | 83 | 181 | 2.6 | 5.2 | 0.00 | 0.00 | 0.00 | 36 | 1020.7 |
| 20260503183638 | 83 | 199 | 2.6 | 2.6 | 0.00 | 0.00 | 0.00 | 36 | 1020.8 |
| 20260503183136 | 83 | 193 | 3.5 | 5.2 | 0.00 | 0.00 | 0.00 | 36 | 1020.8 |
| 20260503182634 | 82 | 181 | 0.9 | 1.7 | 0.00 | 0.00 | 0.00 | 37 | 1021.2 |
| 20260503182132 | 83 | 202 | 1.7 | 1.7 | 0.00 | 0.00 | 0.00 | 38 | 1021.2 |
| 20260503181629 | 83 | 251 | 3.5 | 4.3 | 0.00 | 0.00 | 0.00 | 37 | 1021.4 |
| 20260503181125 | 82 | 268 | 0.9 | 1.7 | 0.00 | 0.00 | 0.00 | 38 | 1021.3 |
| 20260503180622 | 82 | 198 | 3.5 | 6.1 | 0.00 | 0.00 | 0.00 | 39 | 1021.5 |
| 20260503180120 | 81 | 219 | 3.5 | 5.2 | 0.00 | 0.00 | 0.00 | 39 | 1021.6 |
| 20260503175617 | 82 | 161 | 3.5 | 4.3 | 0.00 | 0.00 | 0.00 | 38 | 1021.7 |
| 20260503175114 | 80 | 199 | 3.5 | 5.2 | 0.00 | 0.00 | 0.00 | 40 | 1021.7 |
| 20260503174611 | 81 | 272 | 2.6 | 2.6 | 0.00 | 0.00 | 0.00 | 39 | 1022.0 |
| 20260503174108 | 81 | 225 | 2.6 | 4.3 | 0.00 | 0.00 | 0.00 | 43 | 1022.0 |
| 20260503173603 | 82 | 190 | 0.9 | 1.7 | 0.00 | 0.00 | 0.00 | 40 | 1022.1 |
| 20260503173059 | 81 | 122 | 2.6 | 4.3 | 0.00 | 0.00 | 0.00 | 38 | 1022.2 |
| 20260503172556 | 81 | 200 | 0.9 | 0.9 | 0.00 | 0.00 | 0.00 | 42 | 1022.0 |
| 20260503172054 | 81 | 171 | 0.9 | 1.7 | 0.00 | 0.00 | 0.00 | 43 | 1022.2 |
| 20260503171550 | 80 | 162 | 2.6 | 6.1 | 0.00 | 0.00 | 0.00 | 43 | 1022.5 |
| 20260503171048 | 80 | 189 | 2.6 | 2.6 | 0.00 | 0.00 | 0.00 | 44 | 1022.4 |
| 20260503170544 | 80 | 219 | 1.7 | 1.7 | 0.00 | 0.00 | 0.00 | 45 | 1022.3 |